H1 CPF 2 NER 2023 3 29 9 088 01 glonass106 H2 0705201 9106 32275 2023 3 29 0 0 0 2023 4 1 23 45 0 900 1 1 0 0 0 1 H9 10 0 60032 0.00000 0 -21522687.227 -1971599.780 13542714.419 10 0 60032 900.00000 0 -19699229.590 -2205093.575 16049737.539 10 0 60032 1800.00000 0 -17622607.291 -2661501.045 18244911.087 10 0 60032 2700.00000 0 -15355073.561 -3363095.765 20085603.572 10 0 60032 3600.00000 0 -12963894.569 -4319925.268 21536076.649 10 0 60032 4500.00000 0 -10518679.502 -5529176.077 22568176.884 10 0 60032 5400.00000 0 -8088628.965 -6975089.708 23161879.728 10 0 60032 6300.00000 0 -5739816.079 -8629434.002 23305675.619 10 0 60032 7200.00000 0 -3532613.043 -10452510.814 22996791.115 10 0 60032 8100.00000 0 -1519369.617 -12394658.734 22241241.096 10 0 60032 9000.00000 0 257560.687 -14398188.797 21053711.167 10 0 60032 9900.00000 0 1767365.461 -16399673.026 19457272.538 10 0 60032 10800.00000 0 2991826.012 -18332490.807 17482934.728 10 0 60032 11700.00000 0 3925834.973 -20129527.228 15169044.491 10 0 60032 12600.00000 0 4577358.468 -21725910.905 12560542.299 10 0 60032 13500.00000 0 4966845.618 -23061676.980 9708090.493 10 0 60032 14400.00000 0 5126111.350 -24084243.863 6667089.753 10 0 60032 15300.00000 0 5096740.562 -24750599.857 3496602.925 10 0 60032 16200.00000 0 4928081.871 -25029107.795 258207.113 10 0 60032 17100.00000 0 4674916.518 -24900851.840 -2985203.505 10 0 60032 18000.00000 0 4394901.672 -24360469.621 -6170640.561 10 0 60032 18900.00000 0 4145896.900 -23416434.658 -9236245.956 10 0 60032 19800.00000 0 3983287.419 -22090776.851 -12122493.842 10 0 60032 20700.00000 0 3957417.877 -20418252.692 -14773346.437 10 0 60032 21600.00000 0 4111245.642 -18444999.967 -17137341.169 10 0 60032 22500.00000 0 4478313.070 -16226732.975 -19168588.096 10 0 60032 23400.00000 0 5081124.833 -13826553.607 -20827658.424 10 0 60032 24300.00000 0 5929999.145 -11312469.426 -22082347.269 10 0 60032 25200.00000 0 7022441.895 -8754721.827 -22908296.316 10 0 60032 26100.00000 0 8343070.688 -6223035.149 -23289464.749 10 0 60032 27000.00000 0 9864092.882 -3783900.609 -23218439.714 10 0 60032 27900.00000 0 11546318.540 -1498007.300 -22696580.559 10 0 60032 28800.00000 0 13340666.919 582073.679 -21733994.090 10 0 60032 29700.00000 0 15190104.498 2413856.496 -20349341.210 10 0 60032 30600.00000 0 17031934.427 3966478.274 -18569478.308 10 0 60032 31500.00000 0 18800342.430 5221744.013 -16428939.899 10 0 60032 32400.00000 0 20429093.242 6174636.046 -13969271.957 10 0 60032 33300.00000 0 21854265.043 6833267.650 -11238228.335 10 0 60032 34200.00000 0 23016907.392 7218283.640 -8288845.407 10 0 60032 35100.00000 0 23865511.079 7361734.033 -5178412.625 10 0 60032 36000.00000 0 24358185.871 7305469.037 -1967358.853 10 0 60032 36900.00000 0 24464454.200 7099123.900 1281923.673 10 0 60032 37800.00000 0 24166584.841 6797779.549 4506294.619 10 0 60032 38700.00000 0 23460409.964 6459398.734 7643095.937 10 0 60032 39600.00000 0 22355590.671 6142146.896 10631372.896 10 0 60032 40500.00000 0 20875319.427 5901711.895 13413061.454 10 0 60032 41400.00000 0 19055471.523 5788736.642 15934118.534 10 0 60032 42300.00000 0 16943240.916 5846473.857 18145572.884 10 0 60032 43200.00000 0 14595317.389 6108762.569 20004476.075 10 0 60032 44100.00000 0 12075681.086 6598412.330 21474735.308 10 0 60032 45000.00000 0 9453106.375 7326063.695 22527812.138 10 0 60032 45900.00000 0 6798478.854 8289573.506 23143273.971 10 0 60032 46800.00000 0 4182036.884 9473951.319 23309188.117 10 0 60032 47700.00000 0 1670651.956 10851850.266 23022351.156 10 0 60032 48600.00000 0 -674739.653 12384592.359 22288349.483 10 0 60032 49500.00000 0 -2801447.954 14023685.945 21121450.034 10 0 60032 50400.00000 0 -4666987.802 15712772.388 19544323.284 10 0 60032 51300.00000 0 -6240604.483 17389921.030 17587603.745 10 0 60032 52200.00000 0 -7504303.854 18990176.848 15289296.183 10 0 60032 53100.00000 0 -8453345.223 20448254.405 12694038.747 10 0 60032 54000.00000 0 -9096177.574 21701265.400 9852236.989 10 0 60032 54900.00000 0 -9453823.012 22691365.474 6819085.315 10 0 60032 55800.00000 0 -9558734.450 23368209.002 3653494.777 10 0 60032 56700.00000 0 -9453176.767 23691108.606 416948.068 10 0 60032 57600.00000 0 -9187200.624 23630808.323 -2827695.896 10 0 60032 58500.00000 0 -8816295.336 23170795.465 -6017424.230 10 0 60032 59400.00000 0 -8398820.750 22308095.709 -9090295.083 10 0 60032 60300.00000 0 -7993327.223 21053517.504 -11986641.291 10 0 60032 61200.00000 0 -7655877.601 19431335.184 -14650228.971 10 0 60032 62100.00000 0 -7437484.736 17478423.711 -17029348.498 10 0 60032 63000.00000 0 -7381773.113 15242880.914 -19077816.714 10 0 60032 63900.00000 0 -7522963.533 12782194.426 -20755871.126 10 0 60032 64800.00000 0 -7884266.038 10161029.361 -22030939.101 10 0 60032 65700.00000 0 -8476749.123 7448728.448 -22878267.603 10 0 60032 66600.00000 0 -9298733.178 4716628.151 -23281401.696 10 0 60032 67500.00000 0 -10335734.173 2035301.709 -23232502.947 10 0 60032 68400.00000 0 -11560960.622 -528157.094 -22732501.817 10 0 60032 69300.00000 0 -12936343.732 -2912697.358 -21791081.162 10 0 60032 70200.00000 0 -14414058.377 -5065616.053 -20426491.026 10 0 60032 71100.00000 0 -15938472.013 -6944509.611 -18665197.988 10 0 60032 72000.00000 0 -17448440.555 -8518791.764 -16541375.382 10 0 60032 72900.00000 0 -18879855.607 -9770715.263 -14096243.706 10 0 60032 73800.00000 0 -20168336.588 -10695855.698 -11377273.455 10 0 60032 74700.00000 0 -21251954.889 -11303038.041 -8437265.379 10 0 60032 75600.00000 0 -22073875.534 -11613709.887 -5333325.726 10 0 60032 76500.00000 0 -22584804.968 -11660788.599 -2125756.250 10 0 60032 77400.00000 0 -22745141.467 -11487031.788 1123119.293 10 0 60032 78300.00000 0 -22526737.033 -11143000.685 4350169.022 10 0 60032 79200.00000 0 -21914195.886 -10684703.301 7492683.138 10 0 60032 80100.00000 0 -20905654.192 -10171017.731 10489595.954 10 0 60032 81000.00000 0 -19513007.536 -9661005.344 13282675.450 10 0 60032 81900.00000 0 -17761575.961 -9211228.100 15817656.844 10 0 60032 82800.00000 0 -15689220.118 -8873183.963 18045297.803 10 0 60032 83700.00000 0 -13344945.062 -8690969.186 19922334.767 10 0 60032 84600.00000 0 -10787049.719 -8699266.520 21412321.919 10 0 60032 85500.00000 0 -8080898.890 -8921744.422 22486336.819 10 0 60033 0.00000 0 -5296410.564 -9369934.905 23123539.374 10 0 60033 900.00000 0 -2505361.146 -10042637.753 23311574.042 10 0 60033 1800.00000 0 221376.076 -10925875.769 23046807.101 10 0 60033 2700.00000 0 2816550.084 -11993404.064 22334395.859 10 0 60033 3600.00000 0 5219092.952 -13207751.839 21188187.658 10 0 60033 4500.00000 0 7376418.233 -14521753.571 19630451.044 10 0 60033 5400.00000 0 9246362.020 -15880505.755 17691444.073 10 0 60033 6300.00000 0 10798686.899 -17223667.474 15408827.827 10 0 60033 7200.00000 0 12016087.155 -18488008.559 12826936.197 10 0 60033 8100.00000 0 12894654.369 -19610098.461 9995915.794 10 0 60033 9000.00000 0 13443785.082 -20529022.922 6970752.374 10 0 60033 9900.00000 0 13685535.529 -21189014.074 3810202.661 10 0 60033 10800.00000 0 13653451.667 -21541883.072 575652.285 10 0 60033 11700.00000 0 13390924.760 -21549152.435 -2670077.790 10 0 60033 12600.00000 0 12949142.923 -21183798.061 -5863952.841 10 0 60033 13500.00000 0 12384725.759 -20431526.917 -8943949.879 10 0 60033 14400.00000 0 11757142.616 -19291536.026 -11850262.936 10 0 60033 15300.00000 0 11126024.193 -17776720.391 -14526464.414 10 0 60033 16200.00000 0 10548481.381 -15913320.489 -16920599.854 10 0 60033 17100.00000 0 10076544.788 -13740023.518 -18986194.915 10 0 60033 18000.00000 0 9754833.080 -11306555.360 -20683155.195 10 0 60033 18900.00000 0 9618548.490 -8671821.398 -21978541.806 10 0 60033 19800.00000 0 9691883.950 -5901673.048 -22847208.147 10 0 60033 20700.00000 0 9986908.948 -3066392.235 -23272285.946 10 0 60033 21600.00000 0 10502981.067 -237997.671 -23245511.592 10 0 60033 22500.00000 0 11226708.245 2512516.046 -22767386.682 10 0 60033 23400.00000 0 12132463.686 5117892.632 -21847169.781 10 0 60033 24300.00000 0 13183432.352 7517169.823 -20502699.398 10 0 60033 25200.00000 0 14333145.681 9657971.248 -18760051.297 10 0 60033 26100.00000 0 15527440.677 11498439.972 -16653036.307 10 0 60033 27000.00000 0 16706761.628 13008734.001 -14222547.815 10 0 60033 27900.00000 0 17808708.095 14172022.196 -11515770.983 10 0 60033 28800.00000 0 18770722.216 14984939.703 -8585268.650 10 0 60033 29700.00000 0 19532802.183 15457484.655 -5487961.276 10 0 60033 30600.00000 0 20040127.389 15612361.261 -2284020.669 10 0 60033 31500.00000 0 20245484.095 15483797.733 964300.897 10 0 60033 32400.00000 0 20111388.773 15115889.671 4193883.086 10 0 60033 33300.00000 0 19611818.817 14560539.589 7341967.418 10 0 60033 34200.00000 0 18733476.844 13875080.372 10347380.225 10 0 60033 35100.00000 0 17476534.524 13119683.775 13151724.318 10 0 60033 36000.00000 0 15854823.760 12354664.102 15700515.807 10 0 60033 36900.00000 0 13895466.453 11637791.462 17944243.636 10 0 60033 37800.00000 0 11637957.642 11021728.433 19839331.198 10 0 60033 38700.00000 0 9132739.710 10551698.484 21348981.467 10 0 60033 39600.00000 0 6439326.679 10263484.588 22443889.501 10 0 60033 40500.00000 0 3624056.181 10181842.279 23102808.922 10 0 60033 41400.00000 0 757562.137 10319393.908 23312961.838 10 0 60033 42300.00000 0 -2087927.348 10676050.518 23070284.654 10 0 60033 43200.00000 0 -4841355.272 11238985.603 22379505.361 10 0 60033 44100.00000 0 -7435550.080 11983161.880 21254050.935 10 0 60033 45000.00000 0 -9809777.061 12872389.039 19715786.678 10 0 60033 45900.00000 0 -11912021.616 13860868.193 17794592.354 10 0 60033 46800.00000 0 -13700910.304 14895158.298 15527783.082 10 0 60033 47700.00000 0 -15147190.532 15916482.037 12959385.861 10 0 60033 48600.00000 0 -16234708.152 16863274.250 10139285.465 10 0 60033 49500.00000 0 -16960843.082 17673865.671 7122255.977 10 0 60033 50400.00000 0 -17336385.732 18289188.763 3966896.699 10 0 60033 51300.00000 0 -17384860.402 18655391.397 734493.121 10 0 60033 52200.00000 0 -17141325.167 18726247.778 -2512174.773 10 0 60033 53100.00000 0 -16650699.669 18465264.530 -5710053.363 10 0 60033 54000.00000 0 -15965692.132 17847392.509 -8797041.333 10 0 60033 54900.00000 0 -15144413.827 16860271.679 -11713196.559 10 0 60033 55800.00000 0 -14247782.098 15504955.825 -14401900.154 10 0 60033 56700.00000 0 -13336822.042 13796085.954 -16810954.988 10 0 60033 57600.00000 0 -12469980.909 11761504.426 -18893597.382 10 0 60033 58500.00000 0 -11700568.426 9441325.055 -20609402.518 10 0 60033 59400.00000 0 -11074430.793 6886497.263 -21925066.403 10 0 60033 60300.00000 0 -10627956.084 4156923.285 -22815049.640 10 0 60033 61200.00000 0 -10386494.734 1319205.994 -23262071.024 10 0 60033 62100.00000 0 -10363261.287 -1555879.892 -23257441.775 10 0 60033 63000.00000 0 -10558763.419 -4396089.110 -22801234.255 10 0 60033 63900.00000 0 -10960782.212 -7130468.341 -21902281.953 10 0 60033 64800.00000 0 -11544904.603 -9692066.104 -20578010.658 10 0 60033 65700.00000 0 -12275585.875 -12020478.358 -18854103.750 10 0 60033 66600.00000 0 -13107697.845 -14064124.738 -16764007.646 10 0 60033 67500.00000 0 -13988497.956 -15782161.447 -14348286.412 10 0 60033 68400.00000 0 -14859936.712 -17145951.736 -11653837.480 10 0 60033 69300.00000 0 -15661206.394 -18140033.186 -8732983.231 10 0 60033 70200.00000 0 -16331423.642 -18762541.983 -5642455.734 10 0 60033 71100.00000 0 -16812332.541 -19025077.016 -2442294.226 10 0 60033 72000.00000 0 -17050913.686 -18952010.200 805323.111 10 0 60033 72900.00000 0 -17001788.496 -18579272.729 4037290.075 10 0 60033 73800.00000 0 -16629316.503 -17952669.137 7190802.075 10 0 60033 74700.00000 0 -15909296.227 -17125790.985 10204579.982 10 0 60033 75600.00000 0 -14830196.989 -16157618.905 13020063.887 10 0 60033 76500.00000 0 -13393868.812 -15109914.805 15582553.115 10 0 60033 77400.00000 0 -11615699.618 -14044514.793 17842270.026 10 0 60033 78300.00000 0 -9524212.198 -13020637.336 19755326.853 10 0 60033 79200.00000 0 -7160116.991 -12092320.272 21284576.921 10 0 60033 80100.00000 0 -4574859.459 -11306094.639 22400333.986 10 0 60033 81000.00000 0 -1828721.924 -10698993.033 23080946.150 10 0 60033 81900.00000 0 1011441.825 -10296975.984 23313213.686 10 0 60033 82800.00000 0 3874745.599 -10113842.115 23092643.065 10 0 60033 83700.00000 0 6688978.748 -10150667.517 22423532.608 10 0 60033 84600.00000 0 9383371.244 -10395797.537 21318888.252 10 0 60033 85500.00000 0 11891301.750 -10825391.047 19800171.062 10 0 60034 0.00000 0 14152836.714 -11404494.054 17896881.426 10 0 60034 900.00000 0 16116996.797 -12088597.723 15645986.593 10 0 60034 1800.00000 0 17743654.068 -12825614.329 13091204.975 10 0 60034 2700.00000 0 19004985.627 -13558188.914 10282157.360 10 0 60034 3600.00000 0 19886420.694 -14226248.337 7273403.717 10 0 60034 4500.00000 0 20387043.585 -14769680.323 4123383.236 10 0 60034 5400.00000 0 20519436.284 -15131029.105 893278.372 10 0 60034 6300.00000 0 20308968.191 -15258093.512 -2354174.877 10 0 60034 7200.00000 0 19792563.706 -15106317.311 -5555907.015 10 0 60034 8100.00000 0 19017000.348 -14640870.347 -8649741.345 10 0 60034 9000.00000 0 18036809.740 -13838331.963 -11575602.370 10 0 60034 9900.00000 0 16911870.520 -12687904.995 -14276682.497 10 0 60034 10800.00000 0 15704795.138 -11192108.521 -16700544.252 10 0 60034 11700.00000 0 14478220.776 -9366919.291 -18800136.677 10 0 60034 12600.00000 0 13292118.537 -7241355.031 -20534706.320 10 0 60034 13500.00000 0 12201233.971 -4856516.107 -21870585.532 10 0 60034 14400.00000 0 11252766.204 -2264124.482 -22781843.245 10 0 60034 15300.00000 0 10484382.814 475380.085 -23250786.068 10 0 60034 16200.00000 0 9922653.313 3295108.405 -23268300.432 10 0 60034 17100.00000 0 9581966.557 6124261.559 -22834029.446 10 0 60034 18000.00000 0 9463977.102 8890837.347 -21956381.140 10 0 60034 18900.00000 0 9557603.463 11524392.054 -20652367.838 10 0 60034 19800.00000 0 9839578.177 13958743.687 -18947279.442 10 0 60034 20700.00000 0 10275526.483 16134504.995 -16874196.533 10 0 60034 21600.00000 0 10821528.276 18001341.552 -14473352.104 10 0 60034 22500.00000 0 11426097.602 19519861.372 -11791353.785 10 0 60034 23400.00000 0 12032496.290 20663057.607 -8880281.120 10 0 60034 24300.00000 0 12581284.007 21417244.493 -5796675.129 10 0 60034 25200.00000 0 13012996.871 21782447.763 -2600439.588 10 0 60034 26100.00000 0 13270841.029 21772233.604 646324.466 10 0 60034 27000.00000 0 13303286.799 21412983.884 3880528.084 10 0 60034 27900.00000 0 13066453.014 20742648.709 7039323.655 10 0 60034 28800.00000 0 12526179.955 19809029.455 10061329.581 10 0 60034 29700.00000 0 11659702.395 18667665.249 12887826.041 10 0 60034 30600.00000 0 10456851.212 17379412.524 15463898.166 10 0 60034 31500.00000 0 8920731.911 16007820.140 17739504.068 10 0 60034 32400.00000 0 7067850.529 14616410.963 19670446.890 10 0 60034 33300.00000 0 4927680.625 13265984.481 21219232.090 10 0 60034 34200.00000 0 2541688.517 12012053.886 22355793.597 10 0 60034 35100.00000 0 -38143.406 10902525.090 23058075.121 10 0 60034 36000.00000 0 -2751234.636 9975714.739 23312455.837 10 0 60034 36900.00000 0 -5530686.698 9258789.884 23114012.575 10 0 60034 37800.00000 0 -8305831.476 8766694.146 22466613.788 10 0 60034 38700.00000 0 -11004942.574 8501604.785 21382843.631 10 0 60034 39600.00000 0 -13557997.742 8452942.827 19883757.654 10 0 60034 40500.00000 0 -15899378.233 8597935.247 17998474.677 10 0 60034 41400.00000 0 -17970393.477 8902705.088 15763612.461 10 0 60034 42300.00000 0 -19721526.535 9323843.238 13222577.815 10 0 60034 43200.00000 0 -21114307.307 9810395.297 10424724.550 10 0 60034 44100.00000 0 -22122735.880 10306179.469 7424395.346 10 0 60034 45000.00000 0 -22734197.007 10752337.320 4279866.031 10 0 60034 45900.00000 0 -22949828.097 11090009.294 1052212.803 10 0 60034 46800.00000 0 -22784325.920 11263021.543 -2195875.482 10 0 60034 47700.00000 0 -22265200.730 11220469.980 -5401316.486 10 0 60034 48600.00000 0 -21431510.017 10919091.830 -8501861.024 10 0 60034 49500.00000 0 -20332125.579 10325323.806 -11437302.958 10 0 60034 50400.00000 0 -19023607.458 9416959.332 -14150648.495 10 0 60034 51300.00000 0 -17567774.699 8184334.164 -16589222.066 10 0 60034 52200.00000 0 -16029075.357 6630989.656 -18705687.359 10 0 60034 53100.00000 0 -14471866.421 4773784.886 -20458963.821 10 0 60034 54000.00000 0 -12957717.675 2642451.878 -21815021.265 10 0 60034 54900.00000 0 -11542852.395 278611.421 -22747537.609 10 0 60034 55800.00000 0 -10275831.717 -2265710.501 -23238407.484 10 0 60034 56700.00000 0 -9195579.134 -4930005.021 -23278092.285 10 0 60034 57600.00000 0 -8329827.210 -7647562.574 -22865805.186 10 0 60034 58500.00000 0 -7694050.961 -10348021.103 -22009527.664 10 0 60034 59400.00000 0 -7290931.946 -12960075.393 -20725857.097 10 0 60034 60300.00000 0 -7110375.043 -15414235.818 -19039688.091 10 0 60034 61200.00000 0 -7130076.741 -17645522.482 -16983733.274 10 0 60034 62100.00000 0 -7316620.774 -19595983.238 -14597892.244 10 0 60034 63000.00000 0 -7627054.685 -21216931.086 -11928480.348 10 0 60034 63900.00000 0 -8010880.709 -22470807.906 -9027331.754 10 0 60034 64800.00000 0 -8412376.699 -23332596.850 -5950793.885 10 0 60034 65700.00000 0 -8773148.761 -23790724.480 -2758632.556 10 0 60034 66600.00000 0 -9034807.284 -23847415.022 487130.770 10 0 60034 67500.00000 0 -9141652.586 -23518482.142 3723426.758 10 0 60034 68400.00000 0 -9043255.902 -22832567.328 6887367.071 10 0 60034 69300.00000 0 -8696825.735 -21829857.338 9917469.873 10 0 60034 70200.00000 0 -8069258.607 -20560335.160 12754857.593 10 0 60034 71100.00000 0 -7138786.683 -19081638.553 15344403.231 10 0 60034 72000.00000 0 -5896151.721 -17456616.737 17635802.570 10 0 60034 72900.00000 0 -4345254.920 -15750688.301 19584551.383 10 0 60034 73800.00000 0 -2503254.302 -14029111.514 21152808.739 10 0 60034 74700.00000 0 -400104.519 -12354281.669 22310129.909 10 0 60034 75600.00000 0 1922442.680 -10783168.595 23034055.058 10 0 60034 76500.00000 0 4412336.542 -9365001.305 23310542.771 10 0 60034 77400.00000 0 7009162.445 -8139296.192 23134240.397 10 0 60034 78300.00000 0 9646434.341 -7134310.590 22508586.354 10 0 60034 79200.00000 0 12254149.987 -6365985.608 21445742.545 10 0 60034 80100.00000 0 14761503.364 -5837421.660 19966358.230 10 0 60034 81000.00000 0 17099642.154 -5538907.815 18099169.788 10 0 60034 81900.00000 0 19204356.071 -5448502.878 15880443.815 10 0 60034 82800.00000 0 21018584.554 -5533143.070 13353274.036 10 0 60034 83700.00000 0 22494639.634 -5750228.989 10566745.344 10 0 60034 84600.00000 0 23596051.573 -6049624.411 7574980.882 10 0 60034 85500.00000 0 24298960.387 -6375982.026 4436090.579 10 0 60035 0.00000 0 24592995.372 -6671297.339 1211041.864 10 0 60035 900.00000 0 24481606.169 -6877582.428 -2037527.095 10 0 60035 1800.00000 0 23981831.755 -6939545.532 -5246523.888 10 0 60035 2700.00000 0 23123517.915 -6807163.151 -8353629.874 10 0 60035 3600.00000 0 21948016.039 -6438034.855 -11298511.164 10 0 60035 4500.00000 0 20506418.710 -5799420.830 -14023990.453 10 0 60035 5400.00000 0 18857406.485 -4869875.392 -16477156.511 10 0 60035 6300.00000 0 17064796.571 -3640406.839 -18610389.815 10 0 60035 7200.00000 0 15194896.381 -2115113.977 -20382284.578 10 0 60035 8100.00000 0 13313772.782 -311271.594 -21758449.640 10 0 60035 9000.00000 0 11484551.141 1741139.780 -22712173.183 10 0 60035 9900.00000 0 9764856.758 4000441.265 -23224938.810 10 0 60035 10800.00000 0 8204505.034 6414759.321 -23286783.501 10 0 60035 11700.00000 0 6843536.223 8923964.257 -22896490.758 10 0 60035 12600.00000 0 5710676.109 11461963.942 -22061615.381 10 0 60035 13500.00000 0 4822286.152 13959258.363 -20798339.295 10 0 60035 14400.00000 0 4181846.249 16345649.673 -19131160.918 10 0 60035 15300.00000 0 3779991.076 18552995.653 -17092423.641 10 0 60035 16200.00000 0 3595097.814 20517892.528 -14721692.004 10 0 60035 17100.00000 0 3594400.011 22184175.643 -12064987.046 10 0 60035 18000.00000 0 3735580.227 23505133.791 -9173895.187 10 0 60035 18900.00000 0 3968773.814 24445344.720 -6104567.572 10 0 60035 19800.00000 0 4238898.792 24982054.955 -2916629.126 10 0 60035 20700.00000 0 4488212.812 25106046.032 327981.382 10 0 60035 21600.00000 0 4658988.456 24821950.812 3566217.441 10 0 60035 22500.00000 0 4696192.976 24148006.624 6735153.204 10 0 60035 23400.00000 0 4550058.269 23115255.777 9773209.721 10 0 60035 24300.00000 0 4178431.555 21766227.293 12621354.638 10 0 60035 25200.00000 0 3548806.458 20153155.572 15224251.576 10 0 60035 26100.00000 0 2639947.793 18335811.163 17531336.499 10 0 60035 27000.00000 0 1443040.606 16379034.989 19497800.050 10 0 60035 27900.00000 0 -37685.913 14350079.642 21085456.854 10 0 60035 28800.00000 0 -1784886.822 12315869.198 22263485.169 10 0 60035 29700.00000 0 -3768586.143 10340292.105 23009022.912 10 0 60035 30600.00000 0 -5947198.605 8481639.994 23307608.986 10 0 60035 31500.00000 0 -8269046.704 6790298.908 23153461.735 10 0 60035 32400.00000 0 -10674310.693 5306788.678 22549589.519 10 0 60035 33300.00000 0 -13097331.124 4060231.417 21507731.426 10 0 60035 34200.00000 0 -15469168.766 3067312.201 20048129.303 10 0 60035 35100.00000 0 -17720315.954 2331774.336 18199135.398 10 0 60035 36000.00000 0 -19783446.964 1844469.286 15996662.909 10 0 60035 36900.00000 0 -21596093.129 1583958.175 13483489.782 10 0 60035 37800.00000 0 -23103131.378 1517638.617 10708428.920 10 0 60035 38700.00000 0 -24258982.447 1603348.573 7725380.598 10 0 60035 39600.00000 0 -25029426.915 1791378.879 4592285.368 10 0 60035 40500.00000 0 -25392963.154 2026808.713 1369997.799 10 0 60035 41400.00000 0 -25341650.336 2252064.714 -1878896.939 10 0 60035 42300.00000 0 -24881401.334 2409594.843 -5091300.299 10 0 60035 43200.00000 0 -24031713.387 2444543.306 -8204827.384 10 0 60035 44100.00000 0 -22824848.141 2307312.768 -11159019.587 10 0 60035 45000.00000 0 -21304495.557 1955904.952 -13896518.895 10 0 60035 45900.00000 0 -19523978.130 1357940.042 -16364180.923 10 0 60035 46800.00000 0 -17544071.023 492269.061 -18514105.096 10 0 60035 47700.00000 0 -15430529.363 -649889.445 -20304562.104 10 0 60035 48600.00000 0 -13251426.163 -2064337.082 -21700801.034 10 0 60035 49500.00000 0 -11074411.884 -3733834.257 -22675720.984 10 0 60035 50400.00000 0 -8964009.694 -5628593.415 -23210394.631 10 0 60035 51300.00000 0 -6979058.679 -7707307.346 -23294434.063 10 0 60035 52200.00000 0 -5170410.908 -9918670.808 -22926192.118 10 0 60035 53100.00000 0 -3578977.565 -12203333.093 -22112795.458 10 0 60035 54000.00000 0 -2234204.770 -14496201.296 -20870008.681 10 0 60035 54900.00000 0 -1153041.775 -16728999.241 -19221931.797 10 0 60035 55800.00000 0 -339443.818 -18832976.243 -17200536.486 10 0 60035 56700.00000 0 215570.447 -20741653.327 -14845049.560 10 0 60035 57600.00000 0 533310.110 -22393492.682 -12201194.964 10 0 60035 58500.00000 0 646278.083 -23734378.963 -9320308.557 10 0 60035 59400.00000 0 596560.482 -24719808.573 -6258342.422 10 0 60035 60300.00000 0 433807.899 -25316695.103 -3074777.891 10 0 60035 61200.00000 0 212894.481 -25504714.905 168531.529 10 0 60035 62100.00000 0 -8645.572 -25277136.083 3408564.584 10 0 60035 63000.00000 0 -173294.854 -24641095.825 6582360.196 10 0 60035 63900.00000 0 -226228.924 -23617314.287 9628244.432 10 0 60035 64800.00000 0 -117877.715 -22239257.013 12487032.132 10 0 60035 65700.00000 0 193736.967 -20551781.118 15103179.341 10 0 60035 66600.00000 0 740987.501 -18609322.192 17425863.810 10 0 60035 67500.00000 0 1545035.893 -16473698.126 19409972.424 10 0 60035 68400.00000 0 2614707.102 -14211621.920 21016976.481 10 0 60035 69300.00000 0 3945888.512 -11892027.604 22215678.035 10 0 60035 70200.00000 0 5521481.632 -9583320.861 22982813.264 10 0 60035 71100.00000 0 7311908.987 -7350668.819 23303501.570 10 0 60035 72000.00000 0 9276155.839 -5253441.584 23171532.181 10 0 60035 72900.00000 0 11363304.082 -3342911.483 22589482.998 10 0 60035 73800.00000 0 13514495.142 -1660305.057 21568669.636 10 0 60035 74700.00000 0 15665240.670 -235288.071 20128925.631 10 0 60035 75600.00000 0 17747985.335 915054.345 18298217.983 10 0 60035 76500.00000 0 19694815.300 1786700.954 16112105.153 10 0 60035 77400.00000 0 21440199.675 2388622.005 13613047.755 10 0 60035 78300.00000 0 22923650.644 2742155.347 10849584.911 10 0 60035 79200.00000 0 24092191.138 2879858.365 7875391.994 10 0 60035 80100.00000 0 24902526.709 2843885.042 4748237.912 10 0 60035 81000.00000 0 25322830.469 2683957.503 1528862.178 10 0 60035 81900.00000 0 25334066.203 2455018.533 -1720206.266 10 0 60035 82800.00000 0 24930793.986 2214665.040 -4935865.193 10 0 60035 83700.00000 0 24121424.412 2020471.666 -8055666.206 10 0 60035 84600.00000 0 22927910.713 1927318.387 -11019028.631 10 0 60035 85500.00000 0 21384891.662 1984835.687 -13768416.228 99